Time,TemperatureF,DewpointF,PressureIn,WindDirection,WindDirectionDegrees,WindSpeedMPH,WindSpeedGustMPH,Humidity,HourlyPrecipIn,Conditions,Clouds,dailyrainin,SoftwareType,DateUTC
2013-06-06 00:03:00,72.0,-99.9,-100.00,East,100,4.0,8.0,-999,-99.99,,,-99.99,,2013-06-06 04:03:00,
2013-06-06 00:13:00,72.0,-99.9,-100.00,ESE,105,5.0,7.0,-999,-99.99,,,-99.99,,2013-06-06 04:13:00,
2013-06-06 00:23:00,72.0,-99.9,-100.00,East,95,6.0,7.0,-999,-99.99,,,-99.99,,2013-06-06 04:23:00,
2013-06-06 00:33:00,72.0,-99.9,-100.00,East,80,4.0,7.0,-999,-99.99,,,-99.99,,2013-06-06 04:33:00,
2013-06-06 00:42:00,72.0,-99.9,-100.00,East,85,5.0,9.0,-999,-99.99,,,-99.99,,2013-06-06 04:42:00,
2013-06-06 00:53:00,72.0,-99.9,-100.00,East,90,9.0,12.0,-999,-99.99,,,-99.99,,2013-06-06 04:53:00,
2013-06-06 01:02:00,72.0,-99.9,-100.00,East,90,9.0,12.0,-999,-99.99,,,-99.99,,2013-06-06 05:02:00,
2013-06-06 01:12:00,72.0,-99.9,-100.00,East,90,6.0,10.0,-999,-99.99,,,-99.99,,2013-06-06 05:12:00,
2013-06-06 01:23:00,72.0,-99.9,-100.00,East,85,4.0,8.0,-999,-99.99,,,-99.99,,2013-06-06 05:23:00,
2013-06-06 01:32:00,71.0,-99.9,-100.00,ESE,105,6.0,9.0,-999,-99.99,,,-99.99,,2013-06-06 05:32:00,
2013-06-06 01:42:00,71.0,-99.9,-100.00,East,95,6.0,9.0,-999,-99.99,,,-99.99,,2013-06-06 05:42:00,
2013-06-06 01:52:00,68.0,-99.9,-100.00,East,90,14.0,33.0,-999,-99.99,,,-99.99,,2013-06-06 05:52:00,
2013-06-06 02:02:00,68.0,-99.9,-100.00,East,90,14.0,33.0,-999,-99.99,,,-99.99,,2013-06-06 06:02:00,
2013-06-06 02:12:00,69.0,-99.9,-100.00,SSW,210,4.0,9.0,-999,-99.99,,,-99.99,,2013-06-06 06:12:00,
2013-06-06 02:22:00,69.0,-99.9,-100.00,West,260,13.0,24.0,-999,-99.99,,,-99.99,,2013-06-06 06:22:00,
2013-06-06 02:33:00,69.0,-99.9,-100.00,ESE,105,5.0,11.0,-999,-99.99,,,-99.99,,2013-06-06 06:33:00,
2013-06-06 02:42:00,69.0,-99.9,-100.00,ESE,105,5.0,11.0,-999,-99.99,,,-99.99,,2013-06-06 06:42:00,
2013-06-06 02:52:00,70.0,-99.9,-100.00,East,85,7.0,13.0,-999,-99.99,,,-99.99,,2013-06-06 06:52:00,
2013-06-06 03:02:00,70.0,-99.9,-100.00,East,85,7.0,13.0,-999,-99.99,,,-99.99,,2013-06-06 07:02:00,
2013-06-06 03:12:00,70.0,-99.9,-100.00,East,100,7.0,13.0,-999,-99.99,,,-99.99,,2013-06-06 07:12:00,
2013-06-06 03:22:00,70.0,-99.9,-100.00,ENE,75,9.0,14.0,-999,-99.99,,,-99.99,,2013-06-06 07:22:00,
2013-06-06 03:33:00,70.0,-99.9,-100.00,East,100,7.0,11.0,-999,-99.99,,,-99.99,,2013-06-06 07:33:00,
2013-06-06 03:42:00,70.0,-99.9,-100.00,ESE,105,7.0,11.0,-999,-99.99,,,-99.99,,2013-06-06 07:42:00,
2013-06-06 03:53:00,70.0,-99.9,-100.00,ESE,110,6.0,11.0,-999,-99.99,,,-99.99,,2013-06-06 07:53:00,
2013-06-06 04:02:00,70.0,-99.9,-100.00,ESE,105,7.0,10.0,-999,-99.99,,,-99.99,,2013-06-06 08:02:00,
2013-06-06 04:12:00,71.0,-99.9,-100.00,ESE,110,6.0,11.0,-999,-99.99,,,-99.99,,2013-06-06 08:12:00,
2013-06-06 04:22:00,71.0,-99.9,-100.00,SE,145,8.0,11.0,-999,-99.99,,,-99.99,,2013-06-06 08:22:00,
2013-06-06 04:32:00,71.0,-99.9,-100.00,SE,140,9.0,14.0,-999,-99.99,,,-99.99,,2013-06-06 08:32:00,
2013-06-06 04:42:00,71.0,-99.9,-100.00,SE,140,9.0,14.0,-999,-99.99,,,-99.99,,2013-06-06 08:42:00,
2013-06-06 04:52:00,71.0,-99.9,-100.00,SE,125,9.0,11.0,-999,-99.99,,,-99.99,,2013-06-06 08:52:00,
2013-06-06 05:02:00,71.0,-99.9,-100.00,SE,125,9.0,11.0,-999,-99.99,,,-99.99,,2013-06-06 09:02:00,
2013-06-06 05:12:00,71.0,-99.9,-100.00,ESE,120,8.0,13.0,-999,-99.99,,,-99.99,,2013-06-06 09:12:00,
2013-06-06 05:22:00,71.0,-99.9,-100.00,SE,145,6.0,12.0,-999,-99.99,,,-99.99,,2013-06-06 09:22:00,
2013-06-06 05:33:00,71.0,-99.9,-100.00,SSE,150,7.0,11.0,-999,-99.99,,,-99.99,,2013-06-06 09:33:00,
2013-06-06 05:43:00,71.0,-99.9,-100.00,ESE,120,6.0,9.0,-999,-99.99,,,-99.99,,2013-06-06 09:43:00,
2013-06-06 05:53:00,72.0,-99.9,-100.00,SSE,160,6.0,10.0,-999,-99.99,,,-99.99,,2013-06-06 09:53:00,
2013-06-06 06:03:00,72.0,-99.9,-100.00,SSE,160,6.0,10.0,-999,-99.99,,,-99.99,,2013-06-06 10:03:00,
2013-06-06 06:12:00,72.0,-99.9,-100.00,SSE,160,5.0,7.0,-999,-99.99,,,-99.99,,2013-06-06 10:12:00,
2013-06-06 06:23:00,72.0,-99.9,-100.00,SSE,165,6.0,11.0,-999,-99.99,,,-99.99,,2013-06-06 10:23:00,
2013-06-06 06:33:00,72.0,-99.9,-100.00,SSE,155,6.0,9.0,-999,-99.99,,,-99.99,,2013-06-06 10:33:00,
2013-06-06 06:42:00,72.0,-99.9,-100.00,SE,140,5.0,9.0,-999,-99.99,,,-99.99,,2013-06-06 10:42:00,
2013-06-06 06:53:00,72.0,-99.9,-100.00,South,170,4.0,8.0,-999,-99.99,,,-99.99,,2013-06-06 10:53:00,
2013-06-06 07:03:00,72.0,-99.9,-100.00,South,170,4.0,8.0,-999,-99.99,,,-99.99,,2013-06-06 11:03:00,
2013-06-06 07:12:00,72.0,-99.9,-100.00,SSE,155,5.0,9.0,-999,-99.99,,,-99.99,,2013-06-06 11:12:00,
2013-06-06 07:23:00,73.0,-99.9,-100.00,SSE,165,4.0,7.0,-999,-99.99,,,-99.99,,2013-06-06 11:23:00,
2013-06-06 07:32:00,73.0,-99.9,-100.00,South,175,5.0,9.0,-999,-99.99,,,-99.99,,2013-06-06 11:32:00,
2013-06-06 07:42:00,73.0,-99.9,-100.00,SSE,165,7.0,10.0,-999,-99.99,,,-99.99,,2013-06-06 11:42:00,
2013-06-06 07:52:00,73.0,-99.9,-100.00,SSE,155,4.0,11.0,-999,-99.99,,,-99.99,,2013-06-06 11:52:00,
2013-06-06 08:03:00,74.0,-99.9,-100.00,SE,130,5.0,10.0,-999,-99.99,,,-99.99,,2013-06-06 12:03:00,
2013-06-06 08:13:00,74.0,-99.9,-100.00,SE,135,4.0,7.0,-999,-99.99,,,-99.99,,2013-06-06 12:13:00,
2013-06-06 08:23:00,75.0,-99.9,-100.00,South,180,4.0,7.0,-999,-99.99,,,-99.99,,2013-06-06 12:23:00,
2013-06-06 08:33:00,75.0,-99.9,-100.00,East,95,3.0,9.0,-999,-99.99,,,-99.99,,2013-06-06 12:33:00,
2013-06-06 08:43:00,76.0,74.0,-100.00,SE,125,2.0,6.0,94,-99.99,,,-99.99,,2013-06-06 12:43:00,
2013-06-06 08:53:00,76.0,-99.9,-100.00,SSW,195,4.0,8.0,-999,-99.99,,,-99.99,,2013-06-06 12:53:00,
2013-06-06 09:03:00,76.0,-99.9,-100.00,SSW,195,4.0,8.0,-999,-99.99,,,-99.99,,2013-06-06 13:03:00,
2013-06-06 09:13:00,76.0,74.0,-100.00,East,90,3.0,10.0,94,-99.99,,,-99.99,,2013-06-06 13:13:00,
2013-06-06 09:23:00,76.0,74.0,-100.00,South,180,1.0,7.0,94,-99.99,,,-99.99,,2013-06-06 13:23:00,
2013-06-06 09:33:00,76.0,74.0,-100.00,East,80,1.0,9.0,94,-99.99,,,-99.99,,2013-06-06 13:33:00,
2013-06-06 09:43:00,76.0,74.0,-100.00,South,190,3.0,9.0,94,-99.99,,,-99.99,,2013-06-06 13:43:00,
2013-06-06 09:52:00,76.0,74.0,-100.00,South,185,4.0,8.0,94,-99.99,,,-99.99,,2013-06-06 13:52:00,
2013-06-06 10:03:00,76.0,74.0,-100.00,South,185,4.0,8.0,94,-99.99,,,-99.99,,2013-06-06 14:03:00,
2013-06-06 10:13:00,76.0,74.0,-100.00,SSW,200,4.0,8.0,94,-99.99,,,-99.99,,2013-06-06 14:13:00,
2013-06-06 10:23:00,76.0,75.0,-100.00,East,90,4.0,9.0,94,-99.99,,,-99.99,,2013-06-06 14:23:00,
2013-06-06 10:33:00,76.0,75.0,-100.00,ESE,105,3.0,11.0,94,-99.99,,,-99.99,,2013-06-06 14:33:00,
2013-06-06 10:43:00,76.0,75.0,-100.00,ESE,105,3.0,11.0,94,-99.99,,,-99.99,,2013-06-06 14:43:00,
2013-06-06 10:50:00,77.0,75.0,-100.00,SSE,155,4.0,10.0,94,-99.99,,,-99.99,,2013-06-06 14:50:00,
2013-06-06 10:52:00,77.0,75.0,-100.00,East,95,4.0,9.0,94,-99.99,,,-99.99,,2013-06-06 14:52:00,
2013-06-06 11:03:00,77.0,75.0,-100.00,East,95,4.0,9.0,94,-99.99,,,-99.99,,2013-06-06 15:03:00,
2013-06-06 11:13:00,77.0,75.0,-100.00,SE,145,5.0,10.0,94,-99.99,,,-99.99,,2013-06-06 15:13:00,
2013-06-06 11:23:00,77.0,75.0,-100.00,SSE,155,4.0,10.0,94,-99.99,,,-99.99,,2013-06-06 15:23:00,
2013-06-06 11:33:00,77.0,75.0,-100.00,SSE,155,4.0,10.0,94,-99.99,,,-99.99,,2013-06-06 15:33:00,
2013-06-06 11:43:00,77.0,75.0,-100.00,SSE,155,4.0,10.0,94,-99.99,,,-99.99,,2013-06-06 15:43:00,
2013-06-06 12:03:00,76.0,74.0,-100.00,East,90,6.0,14.0,94,-99.99,,,-99.99,,2013-06-06 16:03:00,
2013-06-06 12:13:00,76.0,74.0,-100.00,SE,145,7.0,12.0,94,-99.99,,,-99.99,,2013-06-06 16:13:00,
2013-06-06 12:23:00,77.0,75.0,-100.00,SE,135,6.0,12.0,94,-99.99,,,-99.99,,2013-06-06 16:23:00,
2013-06-06 12:33:00,76.0,74.0,-100.00,ESE,120,8.0,14.0,94,-99.99,,,-99.99,,2013-06-06 16:33:00,
2013-06-06 12:44:00,76.0,74.0,-100.00,ESE,120,8.0,14.0,94,-99.99,,,-99.99,,2013-06-06 16:44:00,
2013-06-06 12:52:00,77.0,75.0,-100.00,SE,145,9.0,14.0,94,-99.99,,,-99.99,,2013-06-06 16:52:00,
2013-06-06 13:03:00,77.0,75.0,-100.00,SE,145,9.0,14.0,94,-99.99,,,-99.99,,2013-06-06 17:03:00,
2013-06-06 13:13:00,77.0,75.0,-100.00,East,100,8.0,14.0,94,-99.99,,,-99.99,,2013-06-06 17:13:00,
2013-06-06 13:23:00,77.0,75.0,-100.00,ESE,105,10.0,16.0,94,-99.99,,,-99.99,,2013-06-06 17:23:00,
2013-06-06 13:33:00,77.0,75.0,-100.00,SE,130,13.0,17.0,94,-99.99,,,-99.99,,2013-06-06 17:33:00,
2013-06-06 13:43:00,77.0,75.0,-100.00,SE,145,11.0,16.0,94,-99.99,,,-99.99,,2013-06-06 17:43:00,
2013-06-06 13:52:00,77.0,75.0,-100.00,SE,135,13.0,16.0,94,-99.99,,,-99.99,,2013-06-06 17:52:00,
2013-06-06 14:03:00,77.0,75.0,-100.00,SE,135,13.0,16.0,94,-99.99,,,-99.99,,2013-06-06 18:03:00,
2013-06-06 14:13:00,77.0,75.0,-100.00,SE,145,8.0,16.0,94,-99.99,,,-99.99,,2013-06-06 18:13:00,
2013-06-06 14:23:00,77.0,75.0,-100.00,SE,130,11.0,18.0,94,-99.99,,,-99.99,,2013-06-06 18:23:00,
2013-06-06 14:33:00,76.0,74.0,-100.00,SE,135,15.0,19.0,94,-99.99,,,-99.99,,2013-06-06 18:33:00,
2013-06-06 14:43:00,77.0,75.0,-100.00,SSE,150,14.0,19.0,94,-99.99,,,-99.99,,2013-06-06 18:43:00,
2013-06-06 14:53:00,77.0,75.0,-100.00,SE,125,9.0,18.0,94,-99.99,,,-99.99,,2013-06-06 18:53:00,
2013-06-06 15:03:00,77.0,75.0,-100.00,SE,125,9.0,18.0,94,-99.99,,,-99.99,,2013-06-06 19:03:00,
2013-06-06 15:13:00,77.0,75.0,-100.00,SE,135,14.0,21.0,94,-99.99,,,-99.99,,2013-06-06 19:13:00,
2013-06-06 15:23:00,77.0,75.0,-100.00,SE,125,13.0,21.0,94,-99.99,,,-99.99,,2013-06-06 19:23:00,
2013-06-06 15:33:00,77.0,75.0,-100.00,SE,135,13.0,23.0,94,-99.99,,,-99.99,,2013-06-06 19:33:00,
2013-06-06 15:43:00,76.0,75.0,-100.00,SE,145,19.0,26.0,94,-99.99,,,-99.99,,2013-06-06 19:43:00,
2013-06-06 15:53:00,76.0,75.0,-100.00,SE,145,14.0,22.0,94,-99.99,,,-99.99,,2013-06-06 19:53:00,
2013-06-06 16:03:00,76.0,74.0,-100.00,SE,125,11.0,22.0,94,-99.99,,,-99.99,,2013-06-06 20:03:00,
2013-06-06 16:13:00,76.0,74.0,-100.00,SE,125,14.0,21.0,93,-99.99,,,-99.99,,2013-06-06 20:13:00,
2013-06-06 16:23:00,75.0,-99.9,-100.00,SE,130,14.0,19.0,-999,-99.99,,,-99.99,,2013-06-06 20:23:00,
2013-06-06 16:33:00,75.0,-99.9,-100.00,SE,135,11.0,21.0,-999,-99.99,,,-99.99,,2013-06-06 20:33:00,
2013-06-06 16:43:00,75.0,-99.9,-100.00,SE,135,11.0,16.0,-999,-99.99,,,-99.99,,2013-06-06 20:43:00,
2013-06-06 16:53:00,75.0,-99.9,-100.00,ESE,110,11.0,15.0,-999,-99.99,,,-99.99,,2013-06-06 20:53:00,
2013-06-06 17:03:00,75.0,-99.9,-100.00,ESE,110,11.0,15.0,-999,-99.99,,,-99.99,,2013-06-06 21:03:00,
2013-06-06 17:13:00,76.0,-99.9,-100.00,East,100,11.0,14.0,-999,-99.99,,,-99.99,,2013-06-06 21:13:00,
2013-06-06 17:23:00,76.0,74.0,-100.00,ESE,115,10.0,14.0,94,-99.99,,,-99.99,,2013-06-06 21:23:00,
2013-06-06 17:33:00,76.0,74.0,-100.00,East,100,9.0,15.0,94,-99.99,,,-99.99,,2013-06-06 21:33:00,
2013-06-06 17:44:00,76.0,74.0,-100.00,East,85,9.0,13.0,94,-99.99,,,-99.99,,2013-06-06 21:44:00,
2013-06-06 17:53:00,76.0,74.0,-100.00,ESE,110,9.0,13.0,94,-99.99,,,-99.99,,2013-06-06 21:53:00,
2013-06-06 18:03:00,76.0,74.0,-100.00,ESE,110,9.0,13.0,94,-99.99,,,-99.99,,2013-06-06 22:03:00,
2013-06-06 18:13:00,76.0,74.0,-100.00,East,90,9.0,15.0,94,-99.99,,,-99.99,,2013-06-06 22:13:00,
2013-06-06 18:23:00,76.0,74.0,-100.00,ENE,70,11.0,19.0,94,-99.99,,,-99.99,,2013-06-06 22:23:00,
2013-06-06 18:33:00,76.0,74.0,-100.00,ENE,75,10.0,18.0,94,-99.99,,,-99.99,,2013-06-06 22:33:00,
2013-06-06 18:43:00,76.0,74.0,-100.00,East,80,10.0,14.0,94,-99.99,,,-99.99,,2013-06-06 22:43:00,
2013-06-06 18:53:00,76.0,74.0,-100.00,ESE,105,14.0,19.0,94,-99.99,,,-99.99,,2013-06-06 22:53:00,
2013-06-06 19:03:00,76.0,74.0,-100.00,ESE,105,14.0,19.0,94,-99.99,,,-99.99,,2013-06-06 23:03:00,
2013-06-06 19:13:00,76.0,-99.9,-100.00,East,100,10.0,16.0,-999,-99.99,,,-99.99,,2013-06-06 23:13:00,
2013-06-06 19:22:00,75.0,-99.9,-100.00,East,85,9.0,16.0,-999,-99.99,,,-99.99,,2013-06-06 23:22:00,
2013-06-06 19:33:00,75.0,-99.9,-100.00,East,90,11.0,17.0,-999,-99.99,,,-99.99,,2013-06-06 23:33:00,
2013-06-06 19:43:00,75.0,-99.9,-100.00,East,85,11.0,16.0,-999,-99.99,,,-99.99,,2013-06-06 23:43:00,
2013-06-06 19:52:00,74.0,-99.9,-100.00,East,100,11.0,17.0,-999,-99.99,,,-99.99,,2013-06-06 23:52:00,
2013-06-06 20:02:00,74.0,-99.9,-100.00,East,100,14.0,18.0,-999,-99.99,,,-99.99,,2013-06-07 00:02:00,
2013-06-06 20:13:00,73.0,-99.9,-100.00,East,90,11.0,17.0,-999,-99.99,,,-99.99,,2013-06-07 00:13:00,
2013-06-06 20:22:00,72.0,-99.9,-100.00,East,90,11.0,16.0,-999,-99.99,,,-99.99,,2013-06-07 00:22:00,
2013-06-06 20:32:00,72.0,-99.9,-100.00,East,90,9.0,16.0,-999,-99.99,,,-99.99,,2013-06-07 00:32:00,
2013-06-06 20:43:00,72.0,-99.9,-100.00,East,90,9.0,16.0,-999,-99.99,,,-99.99,,2013-06-07 00:43:00,
2013-06-06 20:52:00,69.0,-99.9,-100.00,ENE,70,10.0,11.0,-999,-99.99,,,-99.99,,2013-06-07 00:52:00,
2013-06-06 21:03:00,69.0,-99.9,-100.00,ENE,70,10.0,11.0,-999,-99.99,,,-99.99,,2013-06-07 01:03:00,
2013-06-06 21:13:00,69.0,-99.9,-100.00,NE,55,10.0,12.0,-999,-99.99,,,-99.99,,2013-06-07 01:13:00,
2013-06-06 21:22:00,70.0,-99.9,-100.00,East,80,6.0,11.0,-999,-99.99,,,-99.99,,2013-06-07 01:22:00,
2013-06-06 21:33:00,70.0,-99.9,-100.00,ENE,70,10.0,14.0,-999,-99.99,,,-99.99,,2013-06-07 01:33:00,
2013-06-06 21:42:00,70.0,-99.9,-100.00,ENE,70,10.0,14.0,-999,-99.99,,,-99.99,,2013-06-07 01:42:00,
2013-06-06 21:53:00,72.0,-99.9,-100.00,ENE,70,13.0,15.0,-999,-99.99,,,-99.99,,2013-06-07 01:53:00,
2013-06-06 22:02:00,72.0,-99.9,-100.00,ENE,70,13.0,15.0,-999,-99.99,,,-99.99,,2013-06-07 02:02:00,
2013-06-06 22:12:00,72.0,-99.9,-100.00,ENE,60,14.0,16.0,-999,-99.99,,,-99.99,,2013-06-07 02:12:00,
2013-06-06 22:22:00,72.0,-99.9,-100.00,ENE,65,15.0,18.0,-999,-99.99,,,-99.99,,2013-06-07 02:22:00,
2013-06-06 22:32:00,72.0,-99.9,-100.00,NE,50,16.0,19.0,-999,-99.99,,,-99.99,,2013-06-07 02:32:00,
2013-06-06 22:42:00,72.0,-99.9,-100.00,NE,50,16.0,19.0,-999,-99.99,,,-99.99,,2013-06-07 02:42:00,
2013-06-06 22:52:00,72.0,-99.9,-100.00,ENE,70,16.0,26.0,-999,-99.99,,,-99.99,,2013-06-07 02:52:00,
2013-06-06 23:02:00,72.0,-99.9,-100.00,ENE,65,15.0,21.0,-999,-99.99,,,-99.99,,2013-06-07 03:02:00,
2013-06-06 23:12:00,72.0,-99.9,-100.00,ENE,70,13.0,20.0,-999,-99.99,,,-99.99,,2013-06-07 03:12:00,
2013-06-06 23:22:00,72.0,-99.9,-100.00,ENE,60,14.0,16.0,-999,-99.99,,,-99.99,,2013-06-07 03:22:00,
2013-06-06 23:33:00,73.0,-99.9,-100.00,ENE,75,11.0,15.0,-999,-99.99,,,-99.99,,2013-06-07 03:33:00,
2013-06-06 23:44:00,73.0,-99.9,-100.00,ENE,70,8.0,11.0,-999,-99.99,,,-99.99,,2013-06-07 03:44:00,
2013-06-06 23:53:00,73.0,-99.9,-100.00,ENE,70,13.0,16.0,-999,-99.99,,,-99.99,,2013-06-07 03:53:00,